| time (UTC) | temp C | wind direction | speed KPH | gust KPH | rain 1hr cm | rain 24hr cm | rain mn cm | humidity % | barometer mb |
| 20260508213046 | 18 | 337 | 0.0 | 1.6 | 0.00 | 0.00 | 0.00 | 55 | 1020.8 |
| 20260508211545 | 17 | 176 | 0.0 | 3.2 | 0.00 | 0.00 | 0.00 | 58 | 1020.8 |
| 20260508210046 | 17 | 107 | 0.0 | 1.6 | 0.00 | 0.00 | 0.00 | 54 | 1020.9 |
| 20260508204542 | 17 | 259 | 0.0 | 3.2 | 0.00 | 0.00 | 0.00 | 59 | 1020.9 |
| 20260508203049 | 16 | 163 | 0.0 | 3.2 | 0.00 | 0.00 | 0.00 | 57 | 1020.9 |
| 20260508201608 | 16 | 172 | 0.0 | 0.0 | 0.00 | 0.00 | 0.00 | 61 | 1021.0 |
| 20260508194558 | 16 | 143 | 0.0 | 1.6 | 0.00 | 0.00 | 0.00 | 60 | 1021.0 |
| 20260508193053 | 16 | 126 | 0.0 | 1.6 | 0.00 | 0.00 | 0.00 | 60 | 1021.2 |
| 20260508184525 | 15 | 105 | 0.0 | 3.2 | 0.00 | 0.00 | 0.00 | 64 | 1021.2 |
| 20260508183019 | 14 | 139 | 0.0 | 1.6 | 0.00 | 0.00 | 0.00 | 66 | 1021.2 |
| 20260508171545 | 12 | 198 | 0.0 | 3.2 | 0.00 | 0.00 | 0.00 | 71 | 1020.7 |
| 20260508163115 | 11 | 174 | 0.0 | 1.6 | 0.00 | 0.00 | 0.00 | 78 | 1020.0 |
| 20260508163037 | 11 | 175 | 0.0 | 1.6 | 0.00 | 0.00 | 0.00 | 77 | 1020.0 |
| 20260508161515 | 11 | 136 | 0.0 | 1.6 | 0.00 | 0.00 | 0.00 | 78 | 1020.0 |
| 20260508160024 | 11 | 136 | 0.0 | 1.6 | 0.00 | 0.00 | 0.00 | 79 | 1020.1 |
| 20260508151549 | 10 | 214 | 0.0 | 3.2 | 0.00 | 0.00 | 0.00 | 81 | 1019.5 |
| 20260508144513 | 9 | 137 | 0.0 | 0.0 | 0.00 | 0.00 | 0.00 | 82 | 1019.7 |
| 20260508141535 | 9 | 153 | 0.0 | 0.0 | 0.00 | 0.00 | 0.00 | 87 | 1019.7 |
| 20260508134533 | -17 | 0.0 | 0.0 | 0.00 | 0.00 | 0.00 | 1018.9 | ||
| 20260508133025 | -17 | 0.0 | 0.0 | 0.00 | 0.00 | 0.00 | 1018.8 | ||
| 20260508124509 | 8 | 128 | 0.0 | 0.0 | 0.00 | 0.00 | 0.00 | 88 | 1017.9 |
| 20260508120027 | 9 | 128 | 0.0 | 0.0 | 0.00 | 0.00 | 0.00 | 87 | 1017.5 |
| 20260508114600 | 9 | 128 | 0.0 | 0.0 | 0.00 | 0.00 | 0.00 | 86 | 1017.5 |
| 20260508113010 | 9 | 128 | 0.0 | 0.0 | 0.00 | 0.00 | 0.00 | 86 | 1017.3 |
| 20260508110045 | 10 | 128 | 0.0 | 0.0 | 0.00 | 0.00 | 0.00 | 86 | 1016.8 |
| 20260508110008 | 10 | 128 | 0.0 | 0.0 | 0.00 | 0.00 | 0.00 | 86 | 1016.8 |
| 20260508104539 | 10 | 128 | 0.0 | 0.0 | 0.00 | 0.00 | 0.00 | 86 | 1016.7 |
| 20260508101523 | 10 | 128 | 0.0 | 0.0 | 0.00 | 0.00 | 0.00 | 85 | 1016.6 |
| 20260508100043 | 10 | 128 | 0.0 | 0.0 | 0.00 | 0.00 | 0.00 | 85 | 1016.5 |
| 20260508090106 | 10 | 128 | 0.0 | 0.0 | 0.00 | 0.00 | 0.00 | 83 | 1016.0 |
| 20260508083009 | 10 | 128 | 0.0 | 0.0 | 0.00 | 0.00 | 0.00 | 81 | 1015.9 |
| 20260508071544 | 12 | 128 | 0.0 | 0.0 | 0.00 | 0.00 | 0.00 | 75 | 1015.7 |
| 20260508070054 | 12 | 128 | 0.0 | 1.6 | 0.00 | 0.00 | 0.00 | 75 | 1015.7 |
| 20260508054508 | 13 | 146 | 0.0 | 0.0 | 0.00 | 0.00 | 0.00 | 69 | 1015.9 |
| 20260508051519 | 13 | 146 | 0.0 | 0.0 | 0.00 | 0.00 | 0.00 | 66 | 1015.8 |
| 20260508044533 | 14 | 146 | 0.0 | 0.0 | 0.00 | 0.00 | 0.00 | 64 | 1015.8 |
| 20260508043016 | 15 | 146 | 0.0 | 0.0 | 0.00 | 0.00 | 0.00 | 61 | 1015.7 |
| 20260508041517 | 15 | 146 | 0.0 | 0.0 | 0.00 | 0.00 | 0.00 | 60 | 1015.6 |
| 20260508034603 | 15 | 146 | 0.0 | 0.0 | 0.00 | 0.00 | 0.00 | 58 | 1015.3 |
| 20260508033053 | 16 | 146 | 0.0 | 0.0 | 0.00 | 0.00 | 0.00 | 60 | 1015.2 |
| 20260508023015 | 18 | 146 | 0.0 | 0.0 | 0.00 | 0.00 | 0.00 | 57 | 1015.1 |
| 20260508014547 | 20 | 146 | 0.0 | 0.0 | 0.00 | 0.00 | 0.00 | 53 | 1015.3 |
| 20260508010038 | 20 | 134 | 0.0 | 1.6 | 0.00 | 0.00 | 0.00 | 51 | 1015.6 |
| 20260508004559 | 20 | 134 | 0.0 | 1.6 | 0.00 | 0.00 | 0.00 | 52 | 1015.7 |
| 20260508000018 | 20 | 138 | 0.0 | 1.6 | 0.00 | 0.00 | 0.00 | 48 | 1016.0 |
| 20260507234518 | 20 | 117 | 0.0 | 1.6 | 0.00 | 0.00 | 0.00 | 49 | 1016.2 |
| 20260507231547 | 21 | 143 | 0.0 | 1.6 | 0.00 | 0.00 | 0.00 | 44 | 1016.5 |
| 20260507230100 | 20 | 160 | 0.0 | 1.6 | 0.00 | 0.00 | 0.00 | 41 | 1016.7 |
| 20260507224605 | 20 | 173 | 0.0 | 1.6 | 0.00 | 0.00 | 0.00 | 41 | 1016.9 |
| 20260507223049 | 20 | 218 | 0.0 | 4.8 | 0.00 | 0.00 | 0.00 | 38 | 1017.1 |
| 20260507221539 | 20 | 152 | 0.0 | 3.2 | 0.00 | 0.00 | 0.00 | 42 | 1017.3 |
| 20260507214533 | 20 | 141 | 0.0 | 1.6 | 0.00 | 0.00 | 0.00 | 42 | 1017.6 |